MST,Max TemperatureF,Mean TemperatureF,Min TemperatureF,Max Dew PointF,MeanDew PointF,Min DewpointF,Max Humidity, Mean Humidity, Min Humidity, Max Sea Level PressureIn, Mean Sea Level PressureIn, Min Sea Level PressureIn, Max VisibilityMiles, Mean VisibilityMiles, Min VisibilityMiles, Max Wind SpeedMPH, Mean Wind SpeedMPH, Max Gust SpeedMPH,PrecipitationIn, CloudCover, Events, WindDirDegrees
2012-12-1,57,40,23,25,18,9,64,48,25,30.24,30.19,30.14,10,10,10,17,5,22,0.00,0,,146
2012-12-2,57,38,19,25,16,9,74,45,21,30.24,30.17,30.07,10,10,10,17,5,22,0.00,0,,326
2012-12-3,53,40,26,30,23,10,69,47,36,30.28,30.14,30.07,10,10,10,18,6,23,0.00,4,,240
2012-12-4,51,35,19,27,18,9,93,57,30,30.47,30.39,30.28,10,10,10,10,4,,0.00,0,,6
2012-12-5,59,39,19,21,15,9,63,41,23,30.40,30.24,30.11,10,10,10,15,5,20,0.00,0,,342
2012-12-6,55,37,19,23,16,7,68,43,25,30.10,30.02,29.96,10,10,10,18,5,23,0.00,2,,290
2012-12-7,53,37,21,28,19,10,69,50,28,30.01,29.97,29.90,10,10,10,20,6,24,0.00,3,,261
2012-12-8,48,32,15,27,17,7,80,56,34,29.98,29.92,29.85,10,10,10,16,7,22,0.00,0,,171
2012-12-9,37,18,-2,25,10,-15,86,60,38,30.12,29.94,29.84,10,9,1,18,7,25,0.00,5,,134
2012-12-10,26,8,-11,7,-1,-18,92,64,40,30.11,30.03,29.94,10,10,10,12,4,,0.00,1,,77
2012-12-11,33,16,-2,10,2,-9,92,59,30,30.09,30.04,29.99,10,10,10,10,4,18,0.00,0,,5
2012-12-12,44,22,1,18,6,-8,92,53,25,30.15,30.10,30.06,10,10,10,12,5,,0.00,0,,360
2012-12-13,48,28,8,14,6,-2,73,49,20,30.18,30.10,30.00,10,10,10,10,6,,0.00,0,,4
2012-12-14,33,25,17,30,20,3,93,74,50,30.01,29.82,29.67,10,8,0,16,7,22,0.04,8,,271
2012-12-15,33,27,21,27,22,16,93,80,69,29.98,29.89,29.80,10,8,0,16,7,17,0.02,7,,217
2012-12-16,30,18,5,25,13,0,93,73,51,30.03,29.90,29.81,10,10,10,18,11,25,0.00,3,,222
2012-12-17,33,19,5,23,14,0,93,74,60,30.05,30.00,29.94,10,10,10,16,5,17,0.00,2,,176
2012-12-18,39,28,17,25,21,12,93,69,49,29.99,29.87,29.70,10,10,7,10,6,,0.02,4,,153
2012-12-19,37,19,1,28,16,-11,87,69,52,30.20,29.76,29.51,10,9,0,25,9,33,0.00,6,,275
2012-12-20,24,6,-13,1,-8,-24,100,59,31,30.46,30.39,30.23,10,10,10,10,6,,0.00,0,,6
2012-12-21,26,11,-4,5,-4,-13,85,60,36,30.44,30.36,30.28,10,10,10,14,8,18,0.00,0,,5
2012-12-22,37,18,-2,9,0,-11,85,61,30,30.28,30.21,30.14,10,10,10,9,6,,0.00,0,,2
2012-12-23,41,20,0,19,8,-8,92,67,42,30.17,30.12,30.08,10,10,10,10,6,,0.00,0,,15
2012-12-24,41,22,3,27,15,-6,93,70,39,30.06,29.83,29.66,10,9,0,16,6,23,0.00,4,,250
2012-12-25,32,19,6,27,15,0,100,79,51,30.06,29.94,29.66,10,9,1,10,5,,0.03,2,,42
2012-12-26,32,16,1,19,10,-6,93,75,55,30.03,29.87,29.72,10,10,1,10,4,,0.00,3,,352
2012-12-27,28,14,1,21,12,-4,93,77,55,29.83,29.75,29.70,10,9,1,16,8,25,0.00,2,,239
2012-12-28,28,12,-5,14,2,-13,100,72,51,30.17,29.98,29.83,10,10,8,13,6,,0.00,2,,337
2012-12-29,30,10,-9,7,-2,-20,100,66,37,30.26,30.19,30.09,10,10,10,16,6,,0.00,0,,5
2012-12-30,30,16,3,19,6,-8,85,65,50,30.10,29.98,29.85,10,10,10,12,5,,0.00,6,,3
2012-12-31,28,19,10,23,15,3,93,80,64,29.98,29.84,29.77,10,7,0,16,6,,0.00,7,,280